Vertical_Velocity
-1 -1 -1 0 0 -1 -0 2 4 0 -6 -9 -2 -4 -0 -3 -4 -4 -4 -4 -4 -4 -0 -1 -1 -1 -2 -5 0 2 1 -6 -5 -9 -4 3 3 3
-1 -3 -1 -0 1 0 1 2 2 4 5 -3 -4 -2 -3 -3 -2 -0 -1 -2 -1 -1 -0 -2 -2 -1 4 2 1 2 -3 1 -3 3 1 -1 1 2
-2 -3 -1 -1 -0 0 2 0 -1 1 2 -3 1 -3 -7 -6 -5 -4 -3 -0 -2 -3 -2 -3 1 0 -4 -1 -2 -4 -1 -4 -4 2 1 -2 -1 1
-3 0 -1 0 -1 -0 1 -0 -0 2 2 0 -3 -5 -4 -3 -2 -3 -5 -6 -5 -4 -4 -2 -1 -1 -2 -3 0 1 -4 4 3 -0 -2 -1 3 2
0 -0 -1 -0 -1 -0 0 -1 -1 -1 -0 -2 -7 -1 -4 -2 -7 -3 1 -1 -2 -1 -4 -6 3 -8 1 -0 -2 -3 -2 -4 -7 -4 -3 -5 -2 -4
2 -1 -0 -1 -1 -1 -1 -1 -2 -3 -2 1 -1 -3 -2 -6 1 -2 -8 -1 -12 2 -1 -5 1 -5 -2 3 2 2 1 -0 -2 -4 -3 -2 -5 -4
2 -0 -0 -0 0 1 2 1 -0 -0 3 1 -6 -5 -2 -2 2 -4 -4 -1 -9 -2 -5 -13 -2 -3 2 0 0 0 -2 -1 1 1 -0 -1 2 2
-2 -1 -1 0 -0 -1 -2 -2 1 3 4 -1 -1 1 -1 -4 0 -2 -6 -3 -20 -9 0 -7 12 -11 -1 -3 -5 -3 -0 1 -1 3 -1 0 -1 3
-2 -2 -1 0 -2 -2 -1 -2 -0 -3 -0 4 0 1 -3 -1 2 -6 -2 4 -4 -9 5 -6 -0 -13 3 -6 -4 -3 -2 2 0 -1 0 0 4 6
-1 -0 -2 -3 -1 -0 1 1 1 3 -2 -2 1 1 -1 -0 11 10 2 3 -6 -9 11 -4 -5 -10 -4 -2 -3 -1 -1 -3 -1 -1 -1 -3 -5 -3
-2 -3 -1 1 -1 -6 5 1 -1 -1 0 0 1 1 -1 -2 4 4 -4 0 -12 -12 1 6 -7 -9 -3 -8 -7 -4 -0 -0 2 2 0 -2 -2 -1
-0 -1 -0 0 -1 -1 7 3 -2 -6 -5 -7 -5 -0 7 2 4 7 3 -1 0 -12 -3 6 -3 2 -6 -15 -4 -2 -1 3 -3 -2 -0 -1 -1 -0
-2 -2 -1 -1 1 3 0 3 -2 2 -2 -1 -3 -3 -1 -1 -2 1 6 5 1 -0 -2 19 -2 0 10 -9 -6 -7 -3 0 -5 -5 2 3 1 5
-2 -2 -1 0 -1 -1 -1 -3 1 0 -1 -2 -2 -2 -5 -4 -3 -1 3 6 8 4 -1 10 -4 7 5 -5 -8 -11 -4 -1 -1 -4 -4 -1 0 3
-0 0 1 -1 -1 -2 -0 -1 -1 -0 -3 -3 -3 -4 -2 -2 -1 1 -0 4 -4 -0 2 6 5 -1 6 -2 -3 -14 -5 -10 2 -1 1 -3 -7 3
-2 -1 1 -0 0 -2 -2 -0 -0 -2 -2 -2 -4 -1 0 -2 -5 4 -2 -2 -7 -17 5 9 2 7 -2 0 6 -11 2 5 -1 -3 1 -7 -4 2
5 -2 -2 -2 -3 -2 -2 -1 -1 -1 -1 2 0 -1 -1 -1 -4 1 1 -3 -0 -4 -16 -9 5 8 5 5 -11 9 -6 -8 4 -3 9 -2 2 2
-1 -1 -2 -1 -2 -2 -2 -2 1 1 1 -1 0 1 -1 -2 -4 -6 2 3 -3 -2 -5 0 -5 -12 -10 -12 1 -20 -5 3 -1 -1 3 5 -23 5
1 -1 -2 -1 -2 0 0 -1 -4 -0 -1 1 -1 -0 -0 -2 -0 -2 -0 3 -5 1 0 -0 -3 10 2 -6 3 19 5 -1 -2 -3 8 5 0 -12
-2 -2 -2 -1 0 0 -1 -2 -3 -2 1 0 -2 1 2 1 -3 -0 0 -0 -2 -5 -6 4 2 5 16 6 -3 -19 24 4 7 -0 -1 3 0 -4
-1 -0 -0 0 2 -1 -1 -1 -0 -1 -2 -0 1 -1 1 2 -1 1 -1 4 7 4 -5 -5 1 7 4 -1 -1 -8 -10 20 19 11 1 7 -2 -4
-2 0 -0 2 -1 -2 -1 -1 -1 0 -1 -1 0 2 2 3 0 -0 2 1 -0 2 -2 -2 -3 -1 3 10 -2 -2 -7 -11 6 5 7 16 16 0
-1 -1 -0 -0 -1 -1 -1 -1 -0 -0 1 1 1 0 1 -3 2 1 -0 0 -0 0 7 -6 -4 4 6 6 7 -3 -3 -5 -9 -20 -18 6 2 6
Height
1498 1498 1497 1496 1494 1492 1490 1488 1484 1479 1474 1472 1471 1471 1468 1464 1462 1459 1455 1452 1450 1447 1444 1442 1438 1435 1432 1429 1426 1424 1420 1418 1416 1414 1412 1410 1408 1407
1493 1493 1493 1492 1490 1488 1485 1483 1481 1477 1471 1468 1465 1462 1460 1457 1454 1451 1448 1444 1441 1438 1435 1432 1428 1425 1422 1419 1416 1414 1410 1408 1406 1404 1401 1399 1398 1396
1489 1488 1488 1486 1485 1483 1480 1477 1475 1472 1466 1461 1459 1456 1452 1449 1446 1443 1439 1435 1432 1429 1425 1422 1420 1416 1413 1410 1407 1404 1401 1398 1395 1392 1390 1388 1387 1386
1484 1483 1482 1481 1479 1478 1475 1472 1469 1467 1462 1454 1452 1449 1446 1442 1439 1435 1432 1428 1424 1420 1417 1414 1410 1407 1403 1400 1397 1394 1391 1387 1384 1382 1380 1378 1376 1375
1479 1478 1477 1475 1474 1472 1469 1466 1463 1460 1457 1451 1444 1443 1438 1435 1430 1426 1423 1419 1416 1412 1408 1404 1400 1396 1393 1391 1387 1384 1380 1376 1373 1370 1368 1366 1364 1363
1475 1473 1472 1470 1468 1466 1464 1460 1457 1453 1450 1446 1441 1436 1433 1429 1426 1419 1413 1411 1406 1403 1399 1396 1391 1388 1384 1381 1376 1372 1367 1364 1362 1360 1357 1356 1354 1352
1471 1469 1467 1465 1463 1461 1458 1455 1453 1449 1445 1440 1436 1432 1428 1423 1419 1414 1408 1402 1398 1394 1387 1386 1382 1377 1374 1370 1365 1361 1356 1355 1352 1350 1347 1344 1343 1342
1465 1464 1462 1459 1457 1455 1453 1451 1449 1444 1440 1436 1432 1427 1422 1418 1413 1409 1404 1397 1387 1387 1380 1376 1374 1367 1364 1359 1355 1351 1348 1344 1341 1338 1335 1332 1332 1331
1460 1458 1455 1453 1452 1449 1447 1444 1442 1439 1437 1433 1426 1422 1416 1412 1408 1402 1398 1393 1387 1380 1375 1365 1365 1357 1354 1349 1346 1342 1337 1333 1330 1328 1325 1324 1322 1321
1455 1452 1450 1448 1446 1444 1441 1438 1435 1432 1429 1424 1419 1414 1411 1407 1403 1398 1392 1386 1379 1374 1371 1358 1355 1348 1344 1339 1336 1333 1329 1325 1322 1320 1317 1313 1311 1310
1450 1447 1445 1443 1440 1439 1437 1432 1428 1424 1421 1417 1412 1409 1406 1401 1397 1392 1385 1379 1369 1364 1362 1354 1346 1338 1333 1327 1325 1322 1319 1316 1312 1308 1305 1302 1300 1299
1446 1443 1441 1438 1436 1434 1431 1426 1421 1417 1413 1408 1404 1401 1398 1394 1391 1387 1381 1374 1367 1355 1353 1348 1340 1336 1321 1317 1315 1312 1308 1304 1300 1297 1294 1291 1289 1287
1440 1438 1436 1433 1432 1429 1425 1421 1416 1413 1407 1403 1399 1394 1390 1386 1383 1379 1374 1368 1360 1352 1348 1343 1334 1330 1326 1310 1303 1302 1298 1292 1288 1284 1282 1279 1277 1276
1436 1433 1431 1429 1425 1421 1418 1414 1412 1407 1402 1397 1393 1388 1383 1379 1375 1370 1365 1360 1355 1346 1340 1337 1328 1323 1316 1306 1296 1291 1287 1283 1278 1272 1270 1268 1266 1264
1431 1429 1427 1423 1418 1415 1412 1409 1405 1401 1397 1393 1388 1383 1378 1373 1367 1362 1357 1352 1345 1340 1334 1328 1321 1315 1309 1301 1290 1283 1276 1272 1268 1264 1261 1256 1252 1249
1427 1424 1421 1417 1414 1411 1407 1404 1401 1398 1394 1389 1383 1377 1372 1367 1361 1356 1349 1343 1335 1328 1326 1320 1314 1308 1300 1293 1286 1274 1269 1264 1258 1255 1250 1244 1240 1236
1424 1419 1415 1412 1408 1405 1402 1400 1397 1394 1389 1384 1378 1372 1367 1362 1356 1351 1344 1336 1330 1321 1313 1310 1306 1300 1292 1286 1277 1267 1260 1254 1249 1243 1239 1233 1226 1224
1417 1414 1411 1408 1404 1401 1398 1395 1393 1389 1384 1378 1373 1368 1362 1356 1350 1344 1338 1331 1323 1316 1308 1302 1295 1287 1280 1273 1270 1260 1251 1245 1239 1234 1229 1223 1213 1210
1414 1410 1407 1404 1401 1398 1395 1392 1387 1384 1379 1374 1369 1363 1357 1351 1345 1337 1331 1325 1317 1310 1303 1296 1289 1283 1273 1261 1257 1257 1248 1239 1231 1223 1219 1213 1205 1196
1410 1407 1404 1401 1398 1395 1392 1388 1384 1379 1374 1370 1365 1360 1354 1346 1339 1333 1326 1320 1312 1304 1297 1292 1285 1278 1271 1260 1247 1238 1238 1231 1225 1215 1207 1201 1195 1188
1407 1404 1401 1399 1396 1393 1390 1385 1380 1375 1371 1367 1362 1355 1349 1343 1336 1329 1323 1317 1310 1303 1294 1286 1280 1273 1264 1255 1244 1234 1227 1225 1218 1208 1199 1191 1183 1176
1404 1401 1399 1396 1393 1390 1386 1381 1376 1372 1368 1363 1357 1351 1345 1339 1333 1326 1320 1313 1306 1299 1290 1281 1273 1266 1259 1252 1241 1230 1219 1212 1207 1200 1194 1187 1179 1169
1401 1399 1396 1394 1391 1386 1382 1377 1373 1370 1366 1360 1354 1348 1342 1335 1330 1324 1317 1311 1303 1294 1287 1277 1269 1263 1255 1247 1238 1227 1217 1207 1198 1189 1183 1179 1172 1166